﻿測定場所 (Monitoring sites),日付 (Measurement date),時間 (Measurement time),線量率 最大値 (max) μGy/h,線量率 最小値 (min) μGy/h,線量率 平均値 (average) μGy/h,
江戸川 (Edogawa),2012-04-29,23:01～24:00,0.131,0.113,0.122,
江戸川 (Edogawa),2012-04-29,22:01～23:00,0.126,0.115,0.121,
江戸川 (Edogawa),2012-04-29,21:01～22:00,0.128,0.115,0.121,
江戸川 (Edogawa),2012-04-29,20:01～21:00,0.127,0.113,0.121,
江戸川 (Edogawa),2012-04-29,19:01～20:00,0.127,0.115,0.121,
江戸川 (Edogawa),2012-04-29,18:01～19:00,0.128,0.113,0.121,
江戸川 (Edogawa),2012-04-29,17:01～18:00,0.126,0.111,0.120,
江戸川 (Edogawa),2012-04-29,16:01～17:00,0.126,0.113,0.120,
江戸川 (Edogawa),2012-04-29,15:01～16:00,0.128,0.114,0.120,
江戸川 (Edogawa),2012-04-29,14:01～15:00,0.128,0.115,0.122,
江戸川 (Edogawa),2012-04-29,13:01～14:00,0.127,0.116,0.121,
江戸川 (Edogawa),2012-04-29,12:01～13:00,0.127,0.114,0.120,
江戸川 (Edogawa),2012-04-29,11:01～12:00,0.128,0.114,0.121,
江戸川 (Edogawa),2012-04-29,10:01～11:00,0.127,0.115,0.120,
江戸川 (Edogawa),2012-04-29,09:01～10:00,0.127,0.112,0.121,
江戸川 (Edogawa),2012-04-29,08:01～09:00,0.129,0.117,0.122,
江戸川 (Edogawa),2012-04-29,07:01～08:00,0.127,0.113,0.120,
江戸川 (Edogawa),2012-04-29,06:01～07:00,0.125,0.114,0.119,
江戸川 (Edogawa),2012-04-29,05:01～06:00,0.125,0.113,0.120,
江戸川 (Edogawa),2012-04-29,04:01～05:00,0.125,0.113,0.119,
江戸川 (Edogawa),2012-04-29,03:01～04:00,0.126,0.111,0.119,
江戸川 (Edogawa),2012-04-29,02:01～03:00,0.126,0.113,0.120,
江戸川 (Edogawa),2012-04-29,01:01～02:00,0.127,0.113,0.120,
江戸川 (Edogawa),2012-04-29,00:01～01:00,0.127,0.114,0.120,
江戸川 (Edogawa),2012-04-28,23:01～24:00,0.124,0.113,0.120,
江戸川 (Edogawa),2012-04-28,22:01～23:00,0.127,0.112,0.121,
江戸川 (Edogawa),2012-04-28,21:01～22:00,0.127,0.115,0.120,
江戸川 (Edogawa),2012-04-28,20:01～21:00,0.129,0.112,0.120,
江戸川 (Edogawa),2012-04-28,19:01～20:00,0.127,0.114,0.121,
江戸川 (Edogawa),2012-04-28,18:01～19:00,0.128,0.114,0.120,
江戸川 (Edogawa),2012-04-28,17:01～18:00,0.127,0.114,0.120,
江戸川 (Edogawa),2012-04-28,16:01～17:00,0.127,0.114,0.120,
江戸川 (Edogawa),2012-04-28,15:01～16:00,0.125,0.113,0.120,
江戸川 (Edogawa),2012-04-28,14:01～15:00,0.127,0.114,0.120,
江戸川 (Edogawa),2012-04-28,13:01～14:00,0.125,0.112,0.120,
江戸川 (Edogawa),2012-04-28,12:01～13:00,0.129,0.114,0.120,
江戸川 (Edogawa),2012-04-28,11:01～12:00,0.126,0.114,0.120,
江戸川 (Edogawa),2012-04-28,10:01～11:00,0.127,0.114,0.120,
江戸川 (Edogawa),2012-04-28,09:01～10:00,0.127,0.113,0.120,
江戸川 (Edogawa),2012-04-28,08:01～09:00,0.125,0.114,0.120,
江戸川 (Edogawa),2012-04-28,07:01～08:00,0.128,0.114,0.119,
江戸川 (Edogawa),2012-04-28,06:01～07:00,0.124,0.110,0.118,
江戸川 (Edogawa),2012-04-28,05:01～06:00,0.125,0.111,0.118,
江戸川 (Edogawa),2012-04-28,04:01～05:00,0.126,0.112,0.118,
江戸川 (Edogawa),2012-04-28,03:01～04:00,0.125,0.111,0.118,
江戸川 (Edogawa),2012-04-28,02:01～03:00,0.123,0.109,0.117,
江戸川 (Edogawa),2012-04-28,01:01～02:00,0.123,0.112,0.118,
江戸川 (Edogawa),2012-04-28,00:01～01:00,0.128,0.113,0.118,
江戸川 (Edogawa),2012-04-27,23:01～24:00,0.126,0.113,0.119,
江戸川 (Edogawa),2012-04-27,22:01～23:00,0.122,0.112,0.117,
江戸川 (Edogawa),2012-04-27,21:01～22:00,0.122,0.112,0.117,
江戸川 (Edogawa),2012-04-27,20:01～21:00,0.124,0.112,0.118,
江戸川 (Edogawa),2012-04-27,19:01～20:00,0.126,0.111,0.118,
江戸川 (Edogawa),2012-04-27,18:01～19:00,0.125,0.112,0.118,
江戸川 (Edogawa),2012-04-27,17:01～18:00,0.127,0.115,0.120,
江戸川 (Edogawa),2012-04-27,16:01～17:00,0.128,0.115,0.121,
江戸川 (Edogawa),2012-04-27,15:01～16:00,0.130,0.116,0.122,
江戸川 (Edogawa),2012-04-27,14:01～15:00,0.130,0.117,0.123,
江戸川 (Edogawa),2012-04-27,13:01～14:00,0.128,0.114,0.122,
江戸川 (Edogawa),2012-04-27,12:01～13:00,0.128,0.118,0.123,
江戸川 (Edogawa),2012-04-27,11:01～12:00,0.127,0.113,0.122,
江戸川 (Edogawa),2012-04-27,10:01～11:00,0.129,0.115,0.120,
江戸川 (Edogawa),2012-04-27,09:01～10:00,0.128,0.115,0.121,
江戸川 (Edogawa),2012-04-27,08:01～09:00,0.133,0.116,0.125,
江戸川 (Edogawa),2012-04-27,07:01～08:00,0.132,0.119,0.126,
江戸川 (Edogawa),2012-04-27,06:01～07:00,0.137,0.118,0.128,
江戸川 (Edogawa),2012-04-27,05:01～06:00,0.134,0.116,0.127,
江戸川 (Edogawa),2012-04-27,04:01～05:00,0.131,0.117,0.124,
江戸川 (Edogawa),2012-04-27,03:01～04:00,0.135,0.117,0.124,
江戸川 (Edogawa),2012-04-27,02:01～03:00,0.136,0.118,0.126,
江戸川 (Edogawa),2012-04-27,01:01～02:00,0.133,0.116,0.126,
江戸川 (Edogawa),2012-04-27,00:01～01:00,0.128,0.115,0.121,
江戸川 (Edogawa),2012-04-26,23:01～24:00,0.129,0.114,0.123,
江戸川 (Edogawa),2012-04-26,22:01～23:00,0.129,0.115,0.123,
江戸川 (Edogawa),2012-04-26,21:01～22:00,0.129,0.115,0.122,
江戸川 (Edogawa),2012-04-26,20:01～21:00,0.130,0.115,0.124,
江戸川 (Edogawa),2012-04-26,19:01～20:00,0.131,0.115,0.123,
江戸川 (Edogawa),2012-04-26,18:01～19:00,0.128,0.115,0.121,
江戸川 (Edogawa),2012-04-26,17:01～18:00,0.130,0.116,0.122,
江戸川 (Edogawa),2012-04-26,16:01～17:00,0.132,0.116,0.124,
江戸川 (Edogawa),2012-04-26,15:01～16:00,0.133,0.119,0.126,
江戸川 (Edogawa),2012-04-26,14:01～15:00,0.128,0.117,0.122,
江戸川 (Edogawa),2012-04-26,13:01～14:00,0.128,0.115,0.122,
江戸川 (Edogawa),2012-04-26,12:01～13:00,0.127,0.114,0.121,
江戸川 (Edogawa),2012-04-26,11:01～12:00,0.127,0.114,0.122,
江戸川 (Edogawa),2012-04-26,10:01～11:00,0.128,0.118,0.122,
江戸川 (Edogawa),2012-04-26,09:01～10:00,0.132,0.115,0.124,
江戸川 (Edogawa),2012-04-26,08:01～09:00,0.129,0.116,0.122,
江戸川 (Edogawa),2012-04-26,07:01～08:00,0.129,0.115,0.121,
江戸川 (Edogawa),2012-04-26,06:01～07:00,0.128,0.115,0.121,
江戸川 (Edogawa),2012-04-26,05:01～06:00,0.127,0.111,0.120,
江戸川 (Edogawa),2012-04-26,04:01～05:00,0.127,0.114,0.120,
江戸川 (Edogawa),2012-04-26,03:01～04:00,0.127,0.116,0.121,
江戸川 (Edogawa),2012-04-26,02:01～03:00,0.130,0.113,0.122,
江戸川 (Edogawa),2012-04-26,01:01～02:00,0.129,0.112,0.121,
江戸川 (Edogawa),2012-04-26,00:01～01:00,0.131,0.115,0.122,
江戸川 (Edogawa),2012-04-25,23:01～24:00,0.128,0.115,0.121,
江戸川 (Edogawa),2012-04-25,22:01～23:00,0.129,0.115,0.121,
江戸川 (Edogawa),2012-04-25,21:01～22:00,0.127,0.115,0.121,
江戸川 (Edogawa),2012-04-25,20:01～21:00,0.131,0.116,0.121,
江戸川 (Edogawa),2012-04-25,19:01～20:00,0.126,0.115,0.121,
江戸川 (Edogawa),2012-04-25,18:01～19:00,0.127,0.116,0.121,
江戸川 (Edogawa),2012-04-25,17:01～18:00,0.127,0.110,0.121,
江戸川 (Edogawa),2012-04-25,16:01～17:00,0.131,0.116,0.121,
江戸川 (Edogawa),2012-04-25,15:01～16:00,0.130,0.113,0.122,
江戸川 (Edogawa),2012-04-25,14:01～15:00,0.128,0.113,0.121,
江戸川 (Edogawa),2012-04-25,13:01～14:00,0.127,0.115,0.121,
江戸川 (Edogawa),2012-04-25,12:01～13:00,0.127,0.113,0.121,
江戸川 (Edogawa),2012-04-25,11:01～12:00,0.129,0.114,0.121,
江戸川 (Edogawa),2012-04-25,10:01～11:00,0.128,0.114,0.121,
江戸川 (Edogawa),2012-04-25,09:01～10:00,0.129,0.114,0.122,
江戸川 (Edogawa),2012-04-25,08:01～09:00,0.128,0.115,0.121,
江戸川 (Edogawa),2012-04-25,07:01～08:00,0.129,0.114,0.120,
江戸川 (Edogawa),2012-04-25,06:01～07:00,0.127,0.112,0.120,
江戸川 (Edogawa),2012-04-25,05:01～06:00,0.123,0.112,0.118,
江戸川 (Edogawa),2012-04-25,04:01～05:00,0.123,0.112,0.118,
江戸川 (Edogawa),2012-04-25,03:01～04:00,0.126,0.109,0.119,
江戸川 (Edogawa),2012-04-25,02:01～03:00,0.130,0.113,0.120,
江戸川 (Edogawa),2012-04-25,01:01～02:00,0.126,0.113,0.120,
江戸川 (Edogawa),2012-04-25,00:01～01:00,0.126,0.113,0.120,
江戸川 (Edogawa),2012-04-24,23:01～24:00,0.125,0.113,0.120,
江戸川 (Edogawa),2012-04-24,22:01～23:00,0.128,0.115,0.121,
江戸川 (Edogawa),2012-04-24,21:01～22:00,0.130,0.112,0.122,
江戸川 (Edogawa),2012-04-24,20:01～21:00,0.133,0.118,0.126,
江戸川 (Edogawa),2012-04-24,19:01～20:00,0.128,0.115,0.121,
江戸川 (Edogawa),2012-04-24,18:01～19:00,0.129,0.114,0.120,
江戸川 (Edogawa),2012-04-24,17:01～18:00,0.126,0.114,0.120,
江戸川 (Edogawa),2012-04-24,16:01～17:00,0.129,0.117,0.121,
江戸川 (Edogawa),2012-04-24,15:01～16:00,0.129,0.114,0.121,
江戸川 (Edogawa),2012-04-24,14:01～15:00,0.128,0.111,0.121,
江戸川 (Edogawa),2012-04-24,13:01～14:00,0.126,0.114,0.121,
江戸川 (Edogawa),2012-04-24,12:01～13:00,0.128,0.113,0.121,
江戸川 (Edogawa),2012-04-24,11:01～12:00,0.129,0.114,0.122,
江戸川 (Edogawa),2012-04-24,10:01～11:00,0.126,0.110,0.120,
江戸川 (Edogawa),2012-04-24,09:01～10:00,0.127,0.114,0.121,
江戸川 (Edogawa),2012-04-24,08:01～09:00,0.125,0.113,0.119,
江戸川 (Edogawa),2012-04-24,07:01～08:00,0.125,0.113,0.119,
江戸川 (Edogawa),2012-04-24,06:01～07:00,0.124,0.109,0.118,
江戸川 (Edogawa),2012-04-24,05:01～06:00,0.125,0.111,0.118,
江戸川 (Edogawa),2012-04-24,04:01～05:00,0.126,0.110,0.118,
江戸川 (Edogawa),2012-04-24,03:01～04:00,0.126,0.108,0.117,
江戸川 (Edogawa),2012-04-24,02:01～03:00,0.125,0.111,0.118,
江戸川 (Edogawa),2012-04-24,01:01～02:00,0.125,0.113,0.118,
江戸川 (Edogawa),2012-04-24,00:01～01:00,0.127,0.112,0.118,
江戸川 (Edogawa),2012-04-23,23:01～24:00,0.125,0.111,0.118,
江戸川 (Edogawa),2012-04-23,22:01～23:00,0.124,0.111,0.118,
江戸川 (Edogawa),2012-04-23,21:01～22:00,0.125,0.112,0.118,
江戸川 (Edogawa),2012-04-23,20:01～21:00,0.124,0.109,0.118,
江戸川 (Edogawa),2012-04-23,19:01～20:00,0.124,0.109,0.118,
江戸川 (Edogawa),2012-04-23,18:01～19:00,0.127,0.111,0.118,
江戸川 (Edogawa),2012-04-23,17:01～18:00,0.126,0.109,0.119,
江戸川 (Edogawa),2012-04-23,16:01～17:00,0.127,0.113,0.119,
江戸川 (Edogawa),2012-04-23,15:01～16:00,0.129,0.113,0.121,
江戸川 (Edogawa),2012-04-23,14:01～15:00,0.127,0.114,0.121,
江戸川 (Edogawa),2012-04-23,13:01～14:00,0.126,0.114,0.119,
江戸川 (Edogawa),2012-04-23,12:01～13:00,0.127,0.113,0.119,
江戸川 (Edogawa),2012-04-23,11:01～12:00,0.125,0.113,0.119,
江戸川 (Edogawa),2012-04-23,10:01～11:00,0.127,0.113,0.118,
江戸川 (Edogawa),2012-04-23,09:01～10:00,0.127,0.114,0.119,
江戸川 (Edogawa),2012-04-23,08:01～09:00,0.126,0.111,0.118,
江戸川 (Edogawa),2012-04-23,07:01～08:00,0.123,0.110,0.118,
江戸川 (Edogawa),2012-04-23,06:01～07:00,0.128,0.109,0.120,
江戸川 (Edogawa),2012-04-23,05:01～06:00,0.128,0.115,0.120,
江戸川 (Edogawa),2012-04-23,04:01～05:00,0.128,0.113,0.120,
江戸川 (Edogawa),2012-04-23,03:01～04:00,0.125,0.114,0.119,
江戸川 (Edogawa),2012-04-23,02:01～03:00,0.126,0.111,0.120,
江戸川 (Edogawa),2012-04-23,01:01～02:00,0.130,0.113,0.121,
江戸川 (Edogawa),2012-04-23,00:01～01:00,0.129,0.112,0.122,
